Regional Weather Roundup
Issued by NWS Sioux Falls, SD

Home | Current Version | Previous Version | Text Only | Print | Product List | Glossary Off
Versions: 1 2 3 4 5 6 7 8 9 10 11 12 13 14 15 16 17 18 19 20 21 22 23 24 25 26 27 28 29 30 31 32 33 34 35 36 37 38 39 40 41 42 43 44 45 46 47 48 49 50

000
ASUS43 KFSD 232010
RWRFSD

WEATHER ROUNDUP FOR SE SOUTH DAKOTA/SW MINNESOTA/NW IOWA
NATIONAL WEATHER SERVICE SIOUX FALLS SD
300 PM CDT SUN APR 23 2017

NOTE: "FAIR" INDICATES FEW OR NO CLOUDS BELOW 12,000 FEET WITH NO
SIGNIFICANT WEATHER AND OR OBSTRUCTIONS TO VISIBILITY.


SDZ038>040-050-052>070-232100-
SOUTHEAST SOUTH DAKOTA

CITY           SKY/WX    TMP DP  RH WIND       PRES   REMARKS
BROOKINGS      CLOUDY    68  32  26 S17G31    29.89F
CHAMBERLAIN    CLOUDY    72  35  25 S23G31    29.81F
HURON          CLOUDY    70  32  24 S17G24    29.83F
MADISON        FAIR      66  32  28 S22G31    29.89F
MITCHELL       PTSUNNY   72  27  18 S28G36    29.85F
SIOUX FALLS    CLOUDY    67  37  33 S20G31    29.92F
WINNER         FAIR      74  31  20 S25G38    29.78F
YANKTON        CLOUDY    72  30  21 S22G30    29.90F
$$

MNZ071-072-080-081-089-090-097-098-232100-
SOUTHWEST MINNESOTA

CITY           SKY/WX    TMP DP  RH WIND       PRES   REMARKS
FAIRMONT       CLOUDY    70  28  21 SW15G30   29.98F
JACKSON        CLOUDY    70  30  23 SW17G24   29.98F
LUVERNE        MOSUNNY   70  28  21 SW22G30   29.95F
MARSHALL       MOSUNNY   70  31  23 SW15G23   29.92F
MONTEVIDEO     CLOUDY    66  37  34 S8        29.92F
PIPESTONE      MOSUNNY   68  25  19 SW17G29   29.93F
REDWOOD FALLS  MOSUNNY   71  30  21 S12G21    29.93F
TRACY          PTSUNNY   70  34  26 S13G22    29.94F
WINDOM         CLOUDY    72  27  18 SW18G25   29.96F
WORTHINGTON    MOSUNNY   70  30  22 S15G25    29.96F
$$

IAZ001>003-012>014-020>022-031-032-NEZ013-014-SDZ071-232100-
NORTHWEST IOWA

CITY           SKY/WX    TMP DP  RH WIND       PRES   REMARKS
CHEROKEE       MOSUNNY   69  36  29 SW16G23   29.98F
DENISON        MOSUNNY   70  32  24 SW14G24   30.02F
ESTHERVILLE    CLOUDY    69  30  23 SW16      29.98F
LE MARS        PTSUNNY   70  34  26 S17G28    29.97F
ORANGE CITY    MOSUNNY   70  36  28 SW21G29   29.97F
SHELDON        MOSUNNY   70  30  23 S16G39    29.95F
SIOUX CITY     MOSUNNY   74  30  19 SW21      29.98F
SPENCER        CLOUDY    72  28  19 MISG      29.98F
STORM LAKE     CLOUDY    72  28  20 SW22G28   29.99F
$$

ABBREVIATIONS USED IN REMARKS
   TC - TEMPERATURE IN CELSIUS
  WCI - WIND CHILL INDEX
   HX - HEAT INDEX
  VSB - VISIBILITY





USA.gov is the U.S. government's official web portal to all federal, state and local government web resources and services.